METAR EVRA 181120Z 11005KT 080V140 9999 OVC012 10/08 Q1019 R18/190095 NOSIG =

ATC Feedback

Controllers Online

PositionControllerOnline
No controllers currently online

Booked ATC Today

No ATC booked yet.
Be the first for today!
* Times are UTC

The time is now

UTC: 

Local: 

Latvia vACC on twitter